STARLINK-36045, 66811

Orbit data source: Space-Track

STARLINK-36045, 66811 is a payload satellite owned by SpaceX/Seattle (US) in LEO that was launched on Mon, 01 Dec 2025 UTC via an FALCON 9 launch vehicle from the Air Force Eastern Test Range (AFETR). Payload-class satellites include a variety of spacecraft equipped with specific instruments for various scientific and technological missions. These include communications satellites like Starlink; space stations such as the ISS; scientific satellites like the Hubble; Earth observation satellites from companies like Planet Labs, Umbra, and HawkEye 360; GPS; miniature CubeSats for education and research; and military/defense satellites.

Loading next visibility...
Identifier
66811, 2025-278W
Orbit
LEO
Country
Flag of USUS
Related business
Manufacturer
SpaceX/Seattle
Mission
Operational Commercial Communications
Bus & Motor
STARLINK V2MO, Unknown motor
Mass
575 kg wet, ~530 kg dry
Launch date (UTC)
2025-12-01 (7 months ago)
Launch vehicle
FALCON 9
Launch site
Air Force Eastern Test Range (AFETR)
Object type
Payload
Rocket body
Debris
Shape & HBR
Box + 2 Pan, 17.7 m
Radar Cross Section
36.964 m², Large (>1 m²)

Expand to show TLE details & history
Last TLE update: 14 hours ago

TLE from 14 hours ago
0 STARLINK-36045
1 66811U 25278W   26171.24949603  .00012484  00000-0  46235-3 0  9992
2 66811  42.9994 255.2168 0001546 238.0385 122.0316 15.27583358 30897
Epoch: 2026-06-20T05:59Z
TLE epoch observation values (Epoch: 2026-06-20T05:59:16.456Z)
Latitude
-0.00003°
Longitude
-103.06863°
Altitude
483.377 km
Speed
7.625 km/s
True Right ascension
17h 00m 52s
True Declination
0° 00' 00"
Sunlit
Object was in full shadow at epoch
Visualization orbit readout
Latitude
Unknown
Longitude
Unknown
Altitude
Unknown
Speed
Unknown
Apparent Right ascension
Unknown
Apparent Declination
Unknown
Sunlit
N/A
Visualization observer readout
Local Sidereal Time
07:16:38
Azimuth
Unknown
Elevation
Unknown
Doppler factor
Unknown
Orbital elements
Apogee altitude
486.045 km
Perigee altitude
483.923 km
Semi-major axis
6,863.121 km
Eccentricity
0.00015
Inclination
42.9994°
RAAN
255.2168°
Arg. of periapsis
238.0385°
True anomaly
122.04662°
Mean anomaly
122.0316°
Eccentric anomaly
122.03911°
Mean motion
3.81734 °/min
Orbital period
94.31 mins
BSTAR
0.00046235
Loading maneuver chart data...
Computing Atmospheric mass density...
Loading historical data...
Loading historical data...
Loading historical data...
Loading historical data...
Loading historical data...
Loading historical data...
Loading historical data...

Documentation

Showing up to 5 results
|